,,PA_Meas_PMT16A,,PR_Meas_QMR101_102,,RH_Meas_QMH101,,SR_Meas_QMS101,,TA_Meas_QMH101,,GenWind,,GenWind,
time,status,PA,status,PR,status,RH,status,SR,status,TA,status,DirAvg,status,SpdAvg,
2015-03-12, 07:22:04,VALID,920.297,VALID,0,VALID,98.525,VALID,78.7544,VALID,18.2809,VALID,139,VALID,0,
2015-03-12, 07:23:04,VALID,920.319,VALID,0,VALID,98.5327,VALID,80.7957,VALID,18.3004,VALID,139,VALID,0,
2015-03-12, 07:24:04,VALID,920.336,VALID,0,VALID,98.5403,VALID,82.8371,VALID,18.3199,VALID,139,VALID,0,
2015-03-12, 07:25:04,VALID,920.318,VALID,0,VALID,98.5327,VALID,84.6636,VALID,18.3394,VALID,138,VALID,0,
2015-03-12, 07:26:04,VALID,920.371,VALID,0,VALID,98.5098,VALID,86.3827,VALID,18.4174,VALID,138,VALID,0,
2015-03-12, 07:27:04,VALID,920.38,VALID,0,VALID,98.525,VALID,87.1348,VALID,18.4369,VALID,138,VALID,0,
2015-03-12, 07:28:04,VALID,920.384,VALID,0,VALID,98.5403,VALID,87.3497,VALID,18.4564,VALID,139,VALID,0,
2015-03-12, 07:29:04,VALID,920.415,VALID,0,VALID,98.5174,VALID,88.3166,VALID,18.4759,VALID,139,VALID,0,
2015-03-12, 07:30:04,VALID,920.427,VALID,0,VALID,98.525,VALID,90.1431,VALID,18.4954,VALID,138,VALID,0,
2015-03-12, 07:31:04,VALID,920.43,VALID,0,VALID,98.4869,VALID,92.6143,VALID,18.5539,VALID,138,VALID,0,
2015-03-12, 07:32:04,VALID,920.444,VALID,0,VALID,98.4945,VALID,95.6226,VALID,18.572,VALID,138,VALID,0,
2015-03-12, 07:33:04,VALID,920.464,VALID,0,VALID,98.4564,VALID,98.4161,VALID,18.6109,VALID,138,VALID,0,
2015-03-12, 07:34:04,VALID,920.492,VALID,0,VALID,98.464,VALID,100.78,VALID,18.6319,VALID,138,VALID,0,
2015-03-12, 07:35:04,VALID,920.504,VALID,0,VALID,98.4335,VALID,102.499,VALID,18.6513,VALID,138,VALID,0,
2015-03-12, 07:36:04,VALID,920.48,VALID,0,VALID,98.4259,VALID,103.358,VALID,18.7098,VALID,138,VALID,0,
2015-03-12, 07:37:04,VALID,920.471,VALID,0,VALID,98.4107,VALID,104.218,VALID,18.7878,VALID,127,VALID,0,
2015-03-12, 07:38:04,VALID,920.49,VALID,0,VALID,98.3802,VALID,105.615,VALID,18.8073,VALID,105,VALID,0,
2015-03-12, 07:39:04,VALID,920.501,VALID,0,VALID,98.3726,VALID,108.193,VALID,18.8268,VALID,94,VALID,0,
2015-03-12, 07:40:04,VALID,920.497,VALID,0,VALID,98.3421,VALID,111.739,VALID,18.9048,VALID,93,VALID,0,
2015-03-12, 07:41:04,VALID,920.495,VALID,0,VALID,98.3344,VALID,115.392,VALID,18.9048,VALID,94,VALID,1.03047,
2015-03-12, 07:42:04,VALID,920.51,VALID,0,VALID,98.3344,VALID,118.722,VALID,18.8658,VALID,93,VALID,1.17266,
2015-03-12, 07:43:04,VALID,920.516,VALID,0,VALID,98.3192,VALID,121.516,VALID,18.8644,VALID,93,VALID,1.22461,
2015-03-12, 07:44:04,VALID,920.489,VALID,0,VALID,98.2582,VALID,123.665,VALID,18.8839,VALID,79,VALID,1.17969,
2015-03-12, 07:45:04,VALID,920.464,VALID,0,VALID,98.2048,VALID,125.384,VALID,18.8644,VALID,75,VALID,1.52969,
2015-03-12, 07:46:04,VALID,920.477,VALID,0,VALID,98.1896,VALID,126.995,VALID,18.9034,VALID,67,VALID,1.49492,
2015-03-12, 07:47:04,VALID,920.464,VALID,0,VALID,98.1362,VALID,128.392,VALID,18.9424,VALID,67,VALID,0.964844,
2015-03-12, 07:48:04,VALID,920.484,VALID,0,VALID,98.0981,VALID,130.004,VALID,18.9424,VALID,70,VALID,0.88125,
2015-03-12, 07:49:04,VALID,920.512,VALID,0,VALID,98.0752,VALID,131.508,VALID,19.0008,VALID,46,VALID,1.04609,
2015-03-12, 07:50:04,VALID,920.505,VALID,0,VALID,98.0752,VALID,132.582,VALID,19.0788,VALID,47,VALID,0,
2015-03-12, 07:51:04,VALID,920.521,VALID,0,VALID,98.0524,VALID,133.657,VALID,19.0983,VALID,68,VALID,0,
2015-03-12, 07:52:04,VALID,920.543,VALID,0,VALID,97.999,VALID,134.839,VALID,19.0983,VALID,72,VALID,0,
2015-03-12, 07:53:04,VALID,920.563,VALID,0,VALID,97.9533,VALID,136.45,VALID,19.1373,VALID,72,VALID,0.321094,
2015-03-12, 07:54:04,VALID,920.577,VALID,0,VALID,97.8237,VALID,137.632,VALID,19.1178,VALID,86,VALID,0.8125,
2015-03-12, 07:55:04,VALID,920.556,VALID,0,VALID,97.7779,VALID,138.169,VALID,19.1763,VALID,93,VALID,0.977734,
2015-03-12, 07:56:04,VALID,920.594,VALID,0,VALID,97.6941,VALID,138.169,VALID,19.1763,VALID,118,VALID,1.05859,
2015-03-12, 07:57:04,VALID,920.622,VALID,0,VALID,97.5416,VALID,136.88,VALID,19.1568,VALID,115,VALID,0.00585938,
2015-03-12, 07:58:04,VALID,920.628,VALID,0,VALID,97.3358,VALID,133.657,VALID,19.1568,VALID,121,VALID,0,
2015-03-12, 07:59:04,VALID,920.636,VALID,0,VALID,97.1681,VALID,130.756,VALID,19.2348,VALID,121,VALID,0,
2015-03-12, 08:00:04,VALID,920.657,VALID,0,VALID,97.1376,VALID,128.5,VALID,19.2348,VALID,137,VALID,0,
2015-03-12, 08:01:04,VALID,920.672,VALID,0,VALID,97.1071,VALID,127.533,VALID,19.2348,VALID,140,VALID,0,
2015-03-12, 08:02:04,VALID,920.682,VALID,0,VALID,97.1376,VALID,127.21,VALID,19.2348,VALID,144,VALID,0,
2015-03-12, 08:03:04,VALID,920.709,VALID,0,VALID,97.1986,VALID,127.103,VALID,19.2348,VALID,144,VALID,0,
2015-03-12, 08:04:04,VALID,920.702,VALID,0,VALID,97.1757,VALID,127.318,VALID,19.2153,VALID,144,VALID,0,
2015-03-12, 08:05:04,VALID,920.718,VALID,0,VALID,97.2214,VALID,127.748,VALID,19.2543,VALID,144,VALID,0,
2015-03-12, 08:06:04,VALID,920.723,VALID,0,VALID,97.3205,VALID,128.607,VALID,19.3323,VALID,144,VALID,0,
2015-03-12, 08:07:04,VALID,920.707,VALID,0,VALID,97.3663,VALID,129.252,VALID,19.3713,VALID,144,VALID,0,
2015-03-12, 08:08:04,VALID,920.727,VALID,0,VALID,97.3739,VALID,129.789,VALID,19.3908,VALID,144,VALID,0,
2015-03-12, 08:09:04,VALID,920.721,VALID,0,VALID,97.3281,VALID,129.789,VALID,19.3698,VALID,138,VALID,0,
2015-03-12, 08:10:04,VALID,920.72,VALID,0,VALID,97.2672,VALID,129.789,VALID,19.4103,VALID,137,VALID,0,
2015-03-12, 08:11:04,VALID,920.763,VALID,0,VALID,97.2443,VALID,130.648,VALID,19.4478,VALID,137,VALID,0,
2015-03-12, 08:12:04,VALID,920.75,VALID,0,VALID,97.1757,VALID,132.153,VALID,19.4688,VALID,137,VALID,0,
2015-03-12, 08:13:04,VALID,920.74,VALID,0,VALID,97.0766,VALID,133.979,VALID,19.5273,VALID,137,VALID,0,
2015-03-12, 08:14:04,VALID,920.725,VALID,0,VALID,97.0461,VALID,136.235,VALID,19.6038,VALID,137,VALID,0,
2015-03-12, 08:15:04,VALID,920.704,VALID,0,VALID,96.9165,VALID,138.707,VALID,19.6248,VALID,137,VALID,0,
2015-03-12, 08:16:04,VALID,920.73,VALID,0,VALID,96.642,VALID,141.607,VALID,19.6623,VALID,137,VALID,0,
2015-03-12, 08:17:04,VALID,920.746,VALID,0,VALID,96.4972,VALID,144.616,VALID,19.7418,VALID,137,VALID,0,
2015-03-12, 08:18:04,VALID,920.742,VALID,0,VALID,96.1541,VALID,147.517,VALID,19.7613,VALID,137,VALID,0,
2015-03-12, 08:19:04,VALID,920.733,VALID,0,VALID,96.0093,VALID,149.88,VALID,19.8198,VALID,133,VALID,0,
2015-03-12, 08:20:04,VALID,920.703,VALID,0,VALID,96.055,VALID,151.599,VALID,19.8783,VALID,131,VALID,0,
2015-03-12, 08:21:04,VALID,920.707,VALID,0,VALID,95.3461,VALID,152.566,VALID,19.8393,VALID,123,VALID,1.15156,
2015-03-12, 08:22:04,VALID,920.7,VALID,0,VALID,95.2165,VALID,152.674,VALID,19.8963,VALID,110,VALID,1.16719,
2015-03-12, 08:23:04,VALID,920.693,VALID,0,VALID,94.1111,VALID,152.889,VALID,19.9173,VALID,111,VALID,1.34102,
2015-03-12, 08:24:04,VALID,920.745,VALID,0,VALID,94.4922,VALID,153.211,VALID,19.9548,VALID,117,VALID,0.653516,
2015-03-12, 08:25:04,VALID,920.75,VALID,0,VALID,94.355,VALID,153.856,VALID,19.9743,VALID,122,VALID,1.46484,
2015-03-12, 08:26:04,VALID,920.756,VALID,0,VALID,94.2635,VALID,155.038,VALID,20.0148,VALID,124,VALID,0.974219,
2015-03-12, 08:27:04,VALID,920.777,VALID,0,VALID,94.6371,VALID,156.649,VALID,20.0523,VALID,124,VALID,0,
2015-03-12, 08:28:04,VALID,920.758,VALID,0,VALID,94.6676,VALID,158.476,VALID,20.0718,VALID,147,VALID,0.631641,
2015-03-12, 08:29:04,VALID,920.78,VALID,0,VALID,94.3474,VALID,160.517,VALID,20.0133,VALID,162,VALID,1.3875,
2015-03-12, 08:30:04,VALID,920.783,VALID,0,VALID,94.2559,VALID,162.881,VALID,19.9353,VALID,164,VALID,1.00195,
2015-03-12, 08:31:04,VALID,920.805,VALID,0,VALID,94.4084,VALID,165.567,VALID,19.8963,VALID,158,VALID,1.09766,
2015-03-12, 08:32:04,VALID,920.807,VALID,0,VALID,94.4999,VALID,169.112,VALID,19.8963,VALID,152,VALID,0.795703,
2015-03-12, 08:33:04,VALID,920.814,VALID,0,VALID,94.4617,VALID,173.41,VALID,19.8768,VALID,162,VALID,1.03281,
2015-03-12, 08:34:04,VALID,920.813,VALID,0,VALID,94.1263,VALID,178.245,VALID,19.8783,VALID,127,VALID,0.874609,
2015-03-12, 08:35:04,VALID,920.836,VALID,0,VALID,94.4999,VALID,182.972,VALID,19.9353,VALID,131,VALID,0.323438,
2015-03-12, 08:36:04,VALID,920.809,VALID,0,VALID,94.6676,VALID,187.377,VALID,20.0133,VALID,134,VALID,0,
2015-03-12, 08:37:04,VALID,920.817,VALID,0,VALID,94.1644,VALID,191.568,VALID,20.0328,VALID,136,VALID,0,
2015-03-12, 08:38:04,VALID,920.811,VALID,0,VALID,94.1416,VALID,196.08,VALID,20.1498,VALID,136,VALID,0,
2015-03-12, 08:39:04,VALID,920.823,VALID,0,VALID,93.707,VALID,201.56,VALID,20.1888,VALID,136,VALID,0,
2015-03-12, 08:40:04,VALID,920.837,VALID,0,VALID,93.1734,VALID,207.791,VALID,20.2863,VALID,136,VALID,0,
2015-03-12, 08:41:04,VALID,920.839,VALID,0,VALID,93.5088,VALID,215.312,VALID,20.3838,VALID,136,VALID,0,
2015-03-12, 08:42:04,VALID,920.811,VALID,0,VALID,92.4873,VALID,225.197,VALID,20.4603,VALID,131,VALID,0,
2015-03-12, 08:43:04,VALID,920.824,VALID,0,VALID,89.6133,VALID,237.445,VALID,20.5204,VALID,126,VALID,0,
2015-03-12, 08:44:04,VALID,920.843,VALID,0,VALID,90.0173,VALID,237.552,VALID,20.6358,VALID,126,VALID,0,
2015-03-12, 08:45:04,VALID,920.835,VALID,0,VALID,88.4011,VALID,243.462,VALID,20.7349,VALID,126,VALID,0,
2015-03-12, 08:46:04,VALID,920.844,VALID,0,VALID,88.3706,VALID,247.974,VALID,20.834,VALID,127,VALID,0,
2015-03-12, 08:47:04,VALID,920.857,VALID,0,VALID,87.0975,VALID,253.131,VALID,20.93,VALID,127,VALID,0,
2015-03-12, 08:48:04,VALID,920.85,VALID,0,VALID,87.4177,VALID,259.578,VALID,21.0486,VALID,127,VALID,0,
2015-03-12, 08:49:04,VALID,920.896,VALID,0,VALID,87.4939,VALID,267.851,VALID,21.1445,VALID,128,VALID,0,
2015-03-12, 08:50:04,VALID,920.894,VALID,0,VALID,86.724,VALID,277.091,VALID,21.3022,VALID,133,VALID,0,
2015-03-12, 08:51:04,VALID,920.914,VALID,0,VALID,87.0365,VALID,287.298,VALID,21.4177,VALID,133,VALID,0,
2015-03-12, 08:52:04,VALID,920.911,VALID,0,VALID,86.6477,VALID,298.794,VALID,21.4567,VALID,137,VALID,0,
2015-03-12, 08:53:04,VALID,920.928,VALID,0,VALID,86.5868,VALID,308.464,VALID,21.5152,VALID,166,VALID,0,
2015-03-12, 08:54:04,VALID,920.936,VALID,0,VALID,84.9325,VALID,314.588,VALID,21.5347,VALID,168,VALID,0,
2015-03-12, 08:55:04,VALID,920.959,VALID,0,VALID,86.5791,VALID,318.348,VALID,21.5932,VALID,166,VALID,0.0929687,
2015-03-12, 08:57:04,VALID,920.976,VALID,0,VALID,86.4724,VALID,314.265,VALID,21.5542,VALID,176,VALID,1.13008,
2015-03-12, 08:58:04,VALID,920.967,VALID,0,VALID,86.2589,VALID,312.009,VALID,21.5559,VALID,141,VALID,1.23164,
2015-03-12, 08:59:04,VALID,920.987,VALID,0,VALID,85.6948,VALID,309.645,VALID,21.5347,VALID,151,VALID,1.23203,
2015-03-12, 09:00:04,VALID,920.978,VALID,0,VALID,84.597,VALID,308.571,VALID,21.4957,VALID,141,VALID,1.43789,
2015-03-12, 09:01:04,VALID,920.978,VALID,0,VALID,85.9998,VALID,307.819,VALID,21.4957,VALID,149,VALID,0.942969,
2015-03-12, 09:02:04,VALID,920.941,VALID,0,VALID,86.6401,VALID,308.141,VALID,21.5152,VALID,162,VALID,0.786328,
2015-03-12, 09:03:04,VALID,920.982,VALID,0,VALID,84.7876,VALID,308.356,VALID,21.5152,VALID,147,VALID,1.01406,
2015-03-12, 09:04:04,VALID,920.97,VALID,0,VALID,86.1827,VALID,308.571,VALID,21.5932,VALID,133,VALID,0.782422,
2015-03-12, 09:05:04,VALID,920.957,VALID,0,VALID,86.6401,VALID,307.497,VALID,21.6518,VALID,128,VALID,0.806641,
2015-03-12, 09:06:04,VALID,920.976,VALID,0,VALID,86.846,VALID,305.992,VALID,21.7477,VALID,127,VALID,0.472656,
2015-03-12, 09:07:04,VALID,921.005,VALID,0,VALID,84.9706,VALID,304.058,VALID,21.8647,VALID,128,VALID,0,
2015-03-12, 09:08:04,VALID,921.016,VALID,0,VALID,85.1917,VALID,301.48,VALID,21.964,VALID,123,VALID,0,
2015-03-12, 09:09:04,VALID,921.007,VALID,0,VALID,84.1015,VALID,298.901,VALID,22.0013,VALID,183,VALID,0,
2015-03-12, 09:10:04,VALID,921.014,VALID,0,VALID,83.1715,VALID,297.934,VALID,22.0794,VALID,173,VALID,0,
2015-03-12, 09:11:04,VALID,920.989,VALID,0,VALID,82.7369,VALID,297.612,VALID,22.1201,VALID,184,VALID,0,
2015-03-12, 09:12:04,VALID,920.986,VALID,0,VALID,81.7306,VALID,297.397,VALID,22.1981,VALID,184,VALID,0,
2015-03-12, 09:13:04,VALID,921.007,VALID,0,VALID,80.9836,VALID,297.182,VALID,22.2957,VALID,178,VALID,0,
2015-03-12, 09:14:04,VALID,920.987,VALID,0,VALID,81.2961,VALID,296.752,VALID,22.3754,VALID,177,VALID,0,
2015-03-12, 09:15:04,VALID,921,VALID,0,VALID,80.6634,VALID,296.86,VALID,22.2567,VALID,164,VALID,0,
2015-03-12, 09:16:04,VALID,920.988,VALID,0,VALID,82.5997,VALID,297.29,VALID,22.2745,VALID,158,VALID,0,
2015-03-12, 09:17:04,VALID,920.958,VALID,0,VALID,77.2786,VALID,297.505,VALID,22.1964,VALID,148,VALID,1.38594,
2015-03-12, 09:18:04,VALID,920.964,VALID,0,VALID,78.666,VALID,297.827,VALID,22.1184,VALID,150,VALID,1.12578,
2015-03-12, 09:19:04,VALID,920.963,VALID,0,VALID,81.441,VALID,297.827,VALID,22.1362,VALID,152,VALID,0.683203,
2015-03-12, 09:20:04,VALID,920.915,VALID,0,VALID,81.4028,VALID,297.827,VALID,22.2745,VALID,149,VALID,0.127734,
2015-03-12, 09:21:04,VALID,920.947,VALID,0,VALID,80.2822,VALID,297.075,VALID,22.4696,VALID,152,VALID,0.174219,
2015-03-12, 09:22:04,VALID,920.93,VALID,0,VALID,79.0243,VALID,295.785,VALID,22.5086,VALID,148,VALID,0,
2015-03-12, 09:23:04,VALID,920.945,VALID,0,VALID,79.4207,VALID,293.207,VALID,22.4891,VALID,157,VALID,0.00195313,
2015-03-12, 09:24:04,VALID,920.924,VALID,0,VALID,78.5745,VALID,290.736,VALID,22.4289,VALID,161,VALID,0,
2015-03-12, 09:25:04,VALID,920.924,VALID,0,VALID,77.1185,VALID,288.694,VALID,22.4111,VALID,162,VALID,0,
2015-03-12, 09:26:04,VALID,920.903,VALID,0,VALID,77.37,VALID,287.083,VALID,22.4484,VALID,176,VALID,0,
2015-03-12, 09:27:04,VALID,920.915,VALID,0,VALID,79.6418,VALID,285.901,VALID,22.5867,VALID,174,VALID,0,
2015-03-12, 09:28:04,VALID,920.914,VALID,0,VALID,78.3992,VALID,285.579,VALID,22.663,VALID,175,VALID,0,
2015-03-12, 09:29:04,VALID,920.882,VALID,0,VALID,78.0028,VALID,285.471,VALID,22.624,VALID,169,VALID,0,
2015-03-12, 09:30:04,VALID,920.882,VALID,0,VALID,79.7486,VALID,285.471,VALID,22.6257,VALID,147,VALID,0,
2015-03-12, 09:31:04,VALID,920.852,VALID,0,VALID,80.023,VALID,285.364,VALID,22.7021,VALID,188,VALID,0,
2015-03-12, 09:32:04,VALID,920.876,VALID,0,VALID,79.3369,VALID,285.901,VALID,22.7606,VALID,185,VALID,0,
2015-03-12, 09:33:04,VALID,920.869,VALID,0,VALID,76.3409,VALID,287.083,VALID,22.8582,VALID,199,VALID,1.03789,
2015-03-12, 09:34:04,VALID,920.817,VALID,0,VALID,78.1248,VALID,289.017,VALID,22.8777,VALID,169,VALID,1.53242,
2015-03-12, 09:35:04,VALID,920.803,VALID,0,VALID,76.196,VALID,291.595,VALID,22.6435,VALID,171,VALID,1.27852,
2015-03-12, 09:36:04,VALID,920.841,VALID,0,VALID,77.0727,VALID,294.496,VALID,22.585,VALID,168,VALID,0.878516,
2015-03-12, 09:37:04,VALID,920.833,VALID,0,VALID,78.079,VALID,297.719,VALID,22.6045,VALID,154,VALID,1.25078,
2015-03-12, 09:38:04,VALID,920.834,VALID,0,VALID,78.2925,VALID,300.62,VALID,22.5264,VALID,162,VALID,1.57305,
2015-03-12, 09:39:04,VALID,920.849,VALID,0,VALID,77.6674,VALID,303.951,VALID,22.3899,VALID,173,VALID,1.33789,
2015-03-12, 09:40:04,VALID,920.817,VALID,0,VALID,79.5503,VALID,308.141,VALID,22.4111,VALID,156,VALID,1.24102,
2015-03-12, 09:41:04,VALID,920.834,VALID,0,VALID,78.9481,VALID,313.406,VALID,22.4323,VALID,174,VALID,1.19375,
2015-03-12, 09:42:04,VALID,920.832,VALID,0,VALID,79.2988,VALID,321.356,VALID,22.4874,VALID,168,VALID,0.423438,
2015-03-12, 09:43:04,VALID,920.83,VALID,0,VALID,79.0701,VALID,331.134,VALID,22.5069,VALID,133,VALID,1.41094,
2015-03-12, 09:44:04,VALID,920.856,VALID,0,VALID,78.4145,VALID,340.266,VALID,22.4484,VALID,140,VALID,1.67539,
2015-03-12, 09:45:04,VALID,920.814,VALID,0,VALID,80.1907,VALID,347.68,VALID,22.5069,VALID,161,VALID,0.798437,
2015-03-12, 09:46:04,VALID,920.795,VALID,0,VALID,80.4804,VALID,353.696,VALID,22.6045,VALID,169,VALID,1.41836,
2015-03-12, 09:47:04,VALID,920.806,VALID,0,VALID,80.6862,VALID,360.035,VALID,22.7411,VALID,157,VALID,0,
2015-03-12, 09:48:04,VALID,920.792,VALID,0,VALID,77.7055,VALID,364.87,VALID,22.8191,VALID,182,VALID,0,
2015-03-12, 09:49:04,VALID,920.808,VALID,0,VALID,76.5086,VALID,371.531,VALID,22.8955,VALID,166,VALID,0,
2015-03-12, 09:50:04,VALID,920.813,VALID,0,VALID,78.5059,VALID,385.284,VALID,22.9557,VALID,153,VALID,0,
2015-03-12, 09:51:04,VALID,920.803,VALID,0,VALID,77.492,VALID,395.383,VALID,23.0728,VALID,136,VALID,0,
2015-03-12, 09:52:04,VALID,920.821,VALID,0,VALID,77.7283,VALID,398.499,VALID,23.0906,VALID,159,VALID,0.585938,
2015-03-12, 09:53:04,VALID,920.795,VALID,0,VALID,78.262,VALID,402.475,VALID,23.0924,VALID,160,VALID,0.605859,
2015-03-12, 09:54:04,VALID,920.803,VALID,0,VALID,77.2633,VALID,406.235,VALID,23.229,VALID,205,VALID,0.503125,
2015-03-12, 09:55:04,VALID,920.763,VALID,0,VALID,77.4615,VALID,409.995,VALID,23.4046,VALID,204,VALID,0,
2015-03-12, 09:56:04,VALID,920.786,VALID,0,VALID,76.7678,VALID,415.367,VALID,23.5022,VALID,165,VALID,0,
2015-03-12, 09:57:04,VALID,920.768,VALID,0,VALID,76.562,VALID,428.368,VALID,23.6193,VALID,168,VALID,0,
2015-03-12, 09:58:04,VALID,920.776,VALID,0,VALID,75.914,VALID,567.612,VALID,23.756,VALID,176,VALID,0,
2015-03-12, 09:59:04,VALID,920.737,VALID,0,VALID,76.1198,VALID,727.484,VALID,23.756,VALID,146,VALID,0,
2015-03-12, 10:00:04,VALID,920.747,VALID,0,VALID,76.0131,VALID,598.447,VALID,23.8536,VALID,176,VALID,1.17344,
2015-03-12, 10:01:04,VALID,920.743,VALID,0,VALID,73.8023,VALID,600.918,VALID,23.8926,VALID,174,VALID,1.1,
2015-03-12, 10:02:04,VALID,920.718,VALID,0,VALID,73.444,VALID,683.863,VALID,23.9316,VALID,153,VALID,1.03086,
2015-03-12, 10:03:04,VALID,920.707,VALID,0,VALID,75.4489,VALID,615.53,VALID,23.9493,VALID,135,VALID,1.60234,
2015-03-12, 10:04:04,VALID,920.694,VALID,0,VALID,76.6458,VALID,688.698,VALID,23.9121,VALID,122,VALID,0.785937,
2015-03-12, 10:05:04,VALID,920.684,VALID,0,VALID,73.7261,VALID,626.704,VALID,24.0878,VALID,154,VALID,1.73594,
2015-03-12, 10:06:04,VALID,920.668,VALID,0,VALID,74.1301,VALID,759.716,VALID,24.1464,VALID,177,VALID,0.160938,
2015-03-12, 10:07:04,VALID,920.656,VALID,0,VALID,70.9359,VALID,982.979,VALID,24.1269,VALID,176,VALID,1.60352,
2015-03-12, 10:08:04,VALID,920.645,VALID,0,VALID,71.8888,VALID,944.945,VALID,24.2245,VALID,188,VALID,1.91016,
2015-03-12, 10:09:04,VALID,920.686,VALID,0,VALID,72.2166,VALID,784.858,VALID,24.3611,VALID,207,VALID,0.800781,
2015-03-12, 10:10:04,VALID,920.664,VALID,0,VALID,73.2915,VALID,681.284,VALID,24.6131,VALID,181,VALID,1.20703,
2015-03-12, 10:11:04,VALID,920.676,VALID,0,VALID,72.8722,VALID,525.817,VALID,24.8297,VALID,174,VALID,1.89648,
2015-03-12, 10:12:04,VALID,920.66,VALID,0,VALID,71.5534,VALID,478.328,VALID,24.8316,VALID,154,VALID,0.246875,
2015-03-12, 10:13:04,VALID,920.661,VALID,0,VALID,71.0884,VALID,466.187,VALID,24.8492,VALID,186,VALID,1.20117,
2015-03-12, 10:14:04,VALID,920.65,VALID,0,VALID,71.5305,VALID,469.41,VALID,24.7321,VALID,170,VALID,1.21016,
2015-03-12, 10:15:04,VALID,920.645,VALID,0,VALID,71.2179,VALID,494.552,VALID,24.6716,VALID,181,VALID,0.204297,
2015-03-12, 10:16:04,VALID,920.648,VALID,0,VALID,72.4529,VALID,560.413,VALID,24.4764,VALID,168,VALID,0.205078,
2015-03-12, 10:17:04,VALID,920.616,VALID,0,VALID,74.9229,VALID,729.418,VALID,24.4002,VALID,141,VALID,0.352734,
2015-03-12, 10:18:04,VALID,920.639,VALID,0,VALID,73.2,VALID,657.218,VALID,24.4764,VALID,152,VALID,0.0195313,
2015-03-12, 10:19:04,VALID,920.603,VALID,0,VALID,72.3157,VALID,544.942,VALID,24.6735,VALID,196,VALID,1.22383,
2015-03-12, 10:20:04,VALID,920.575,VALID,0,VALID,72.7274,VALID,513.246,VALID,24.8278,VALID,190,VALID,0.717969,
2015-03-12, 10:21:04,VALID,920.567,VALID,0,VALID,72.7655,VALID,492.94,VALID,24.9274,VALID,174,VALID,0.489453,
2015-03-12, 10:22:04,VALID,920.601,VALID,0,VALID,70.6996,VALID,485.527,VALID,24.9059,VALID,189,VALID,1.67148,
2015-03-12, 10:23:04,VALID,920.56,VALID,0,VALID,72.2166,VALID,506.155,VALID,24.945,VALID,189,VALID,1.67031,
2015-03-12, 10:24:04,VALID,920.557,VALID,0,VALID,71.1798,VALID,602.208,VALID,25.0036,VALID,187,VALID,1.15469,
2015-03-12, 10:25:04,VALID,920.538,VALID,0,VALID,71.0274,VALID,580.612,VALID,24.8864,VALID,176,VALID,1.49023,
2015-03-12, 10:26:04,VALID,920.556,VALID,0,VALID,71.2561,VALID,660.011,VALID,24.8474,VALID,180,VALID,1.46484,
2015-03-12, 10:27:04,VALID,920.518,VALID,0,VALID,71.2561,VALID,771.965,VALID,24.9664,VALID,193,VALID,0,
2015-03-12, 10:28:04,VALID,920.518,VALID,0,VALID,69.5256,VALID,839.008,VALID,25.1012,VALID,168,VALID,0.0121094,
2015-03-12, 10:29:04,VALID,920.507,VALID,0,VALID,68.4735,VALID,912.39,VALID,25.3355,VALID,190,VALID,0,
2015-03-12, 10:30:04,VALID,920.483,VALID,0,VALID,68.0314,VALID,1053.89,VALID,25.6109,VALID,194,VALID,0,
2015-03-12, 10:31:04,VALID,920.454,VALID,0,VALID,67.6731,VALID,1038.96,VALID,25.8823,VALID,223,VALID,0.14375,
2015-03-12, 10:32:04,VALID,920.421,VALID,0,VALID,68.2296,VALID,936.672,VALID,25.9409,VALID,241,VALID,0.162891,
2015-03-12, 10:33:04,VALID,920.443,VALID,0,VALID,67.8941,VALID,873.389,VALID,25.9995,VALID,177,VALID,0.163672,
2015-03-12, 10:34:04,VALID,920.433,VALID,0,VALID,67.6959,VALID,1028.1,VALID,26.0776,VALID,191,VALID,1.86719,
2015-03-12, 10:35:04,VALID,920.433,VALID,0,VALID,65.8587,VALID,818.487,VALID,26.1948,VALID,184,VALID,1.77461,
2015-03-12, 10:36:04,VALID,920.393,VALID,0,VALID,64.5703,VALID,740.699,VALID,26.2905,VALID,201,VALID,1.27461,
2015-03-12, 10:37:04,VALID,920.367,VALID,0,VALID,65.7596,VALID,451.468,VALID,26.4077,VALID,194,VALID,1.17695,
2015-03-12, 10:38:04,VALID,920.373,VALID,0,VALID,69.2282,VALID,495.626,VALID,26.4272,VALID,171,VALID,1.13008,
2015-03-12, 10:39:04,VALID,920.383,VALID,0,VALID,64.6923,VALID,592.968,VALID,26.2514,VALID,161,VALID,1.09063,
2015-03-12, 10:40:04,VALID,920.356,VALID,0,VALID,64.4179,VALID,569.76,VALID,25.9194,VALID,162,VALID,2.18555,
2015-03-12, 10:41:04,VALID,920.305,VALID,0,VALID,66.9793,VALID,723.831,VALID,25.5503,VALID,170,VALID,1.27266,
2015-03-12, 10:42:04,VALID,920.314,VALID,0,VALID,69.2054,VALID,704.707,VALID,25.6265,VALID,173,VALID,1.59297,
2015-03-12, 10:43:04,VALID,920.311,VALID,0,VALID,68.9995,VALID,623.481,VALID,25.7261,VALID,157,VALID,1.27461,
2015-03-12, 10:44:04,VALID,920.264,VALID,0,VALID,66.8955,VALID,410.748,VALID,25.7827,VALID,189,VALID,1.58555,
2015-03-12, 10:45:04,VALID,920.265,VALID,0,VALID,65.5309,VALID,399.789,VALID,25.8999,VALID,194,VALID,0.473047,
2015-03-12, 10:46:04,VALID,920.239,VALID,0,VALID,64.7609,VALID,420.632,VALID,26.0366,VALID,188,VALID,0,
2015-03-12, 10:47:04,VALID,920.199,VALID,0,VALID,65.5156,VALID,402.797,VALID,26.1342,VALID,188,VALID,0,
2015-03-12, 10:48:04,VALID,920.182,VALID,0,VALID,64.5017,VALID,412.896,VALID,26.2514,VALID,192,VALID,0,
2015-03-12, 10:49:04,VALID,920.185,VALID,0,VALID,64.5703,VALID,389.044,VALID,26.31,VALID,192,VALID,0,
2015-03-12, 10:50:04,VALID,920.151,VALID,0,VALID,65.0964,VALID,630.035,VALID,26.1342,VALID,171,VALID,1.09687,
2015-03-12, 10:51:04,VALID,920.161,VALID,0,VALID,66.1712,VALID,695.681,VALID,25.9389,VALID,167,VALID,0.846094,
2015-03-12, 10:52:04,VALID,920.131,VALID,0,VALID,67.0022,VALID,711.475,VALID,26.0366,VALID,157,VALID,0.806641,
2015-03-12, 10:53:04,VALID,920.072,VALID,0,VALID,64.8143,VALID,880.48,VALID,25.9585,VALID,112,VALID,0.921094,
2015-03-12, 10:54:04,VALID,920.077,VALID,0,VALID,64.3416,VALID,926.035,VALID,25.9585,VALID,150,VALID,0.040625,
2015-03-12, 10:55:04,VALID,920.077,VALID,0,VALID,65.4775,VALID,1015.43,VALID,26.1733,VALID,150,VALID,1.15937,
2015-03-12, 10:56:04,VALID,920.061,VALID,0,VALID,64.6085,VALID,1016.39,VALID,26.31,VALID,215,VALID,0.719531,
2015-03-12, 10:57:04,VALID,920.007,VALID,0,VALID,62.2376,VALID,1015.32,VALID,26.5424,VALID,242,VALID,1.9125,
2015-03-12, 10:58:04,VALID,920.005,VALID,0,VALID,62.8856,VALID,1039.28,VALID,26.4858,VALID,244,VALID,0.828906,
2015-03-12, 10:59:04,VALID,919.992,VALID,0,VALID,63.4497,VALID,952.358,VALID,26.6421,VALID,190,VALID,1.19922,
2015-03-12, 11:00:04,VALID,920.002,VALID,0,VALID,60.3393,VALID,902.398,VALID,26.7768,VALID,140,VALID,1.53359,
2015-03-12, 11:01:04,VALID,919.972,VALID,0,VALID,63.564,VALID,626.597,VALID,26.5424,VALID,116,VALID,1.37969,
2015-03-12, 11:02:04,VALID,919.982,VALID,0,VALID,62.3977,VALID,699.979,VALID,26.6596,VALID,65,VALID,0.0121094,